Regional Weather Roundup
Issued by NWS

Home | Current Version | Previous Version | Graphics & Text | Print | Product List | Glossary Off
Versions: 1 2 3 4 5 6 7 8 9 10 11 12 13 14 15 16 17 18 19 20 21 22 23 24 25 26 27 28 29 30 31 32 33 34 35 36 37 38 39 40 41 42 43 44 45 46 47 48 49 50

168
ASUS43 KMKX 270200
RWRWI

WISCONSIN REGIONAL WEATHER ROUNDUP
NATIONAL WEATHER SERVICE MILWAUKEE/SULLIVAN WI
900 PM CDT THU MAY 26 2016

NOTE: "FAIR" INDICATES FEW OR NO CLOUDS BELOW 12,000 FEET WITH NO
SIGNIFICANT WEATHER AND/OR OBSTRUCTIONS TO VISIBILITY.

WIZ001-002-006>008-014>016-023>028-270300-
NORTHWEST WISCONSIN

CITY           SKY/WX    TMP DP  RH WIND       PRES   REMARKS
SUPERIOR ARPT  FOG       47  47 100 N3        29.84R VSB<1/4
ASHLAND        FOG       51  51 100 N6        29.84R VSB<1/4
HAYWARD        CLOUDY    72  51  47 SW5       29.83R
SIREN          CLOUDY    71  49  46 W3        29.84R
CUMBERLAND     CLOUDY    70  52  52 W7        29.85R
RICE LAKE      CLOUDY    72  53  52 CALM      29.85S
CHETEK         CLOUDY    71  52  51 W5        29.83F
LADYSMITH      CLOUDY    70  57  63 CALM      29.85S
EAU CLAIRE     NOT AVBL
MENOMONIE      CLOUDY    72  52  49 SW5       29.83S
NEW RICHMOND   CLOUDY    69  52  54 W7        29.85R
OSCEOLA        CLOUDY    71  56  57 SW3       29.87R
$$

WIZ003>005-009-010-017-018-270300-
NORTH CENTRAL WISCONSIN

CITY           SKY/WX    TMP DP  RH WIND       PRES   REMARKS
MANITOWISH WTR NOT AVBL
ARBOR VITAE    CLEAR     68  59  72 CALM      29.86R
WOODRUFF       CLEAR     68  59  72 CALM      29.86R
RHINELANDER    PTCLDY    67  56  67 SW5       29.87R
EAGLE RIVER      N/A     67  58  72 CALM      29.85R
LAND O LAKES   PTCLDY    66  62  87 CALM      29.87R
PHILLIPS       MOCLDY    67  59  75 CALM      29.83F
TOMAHAWK       PTCLDY    64  57  78 CALM      29.86S
MEDFORD        CLOUDY    67  60  78 CALM      29.86S
MERRILL        CLOUDY    67  61  78 CALM      29.86S
$$

WIZ029-030-035-036-043>047-270300-
CENTRAL WISCONSIN

CITY           SKY/WX    TMP DP  RH WIND       PRES   REMARKS
WAUSAU         CLOUDY    70  60  70 CALM      29.84S
MOSINEE        CLEAR     66  61  82 CALM      29.87S
MARSHFIELD     CLOUDY    70  58  65 SW3       29.86R
STEVENS POINT  PTCLDY    67  60  77 CALM      29.87R
WAUPACA        CLOUDY    72  64  77 CALM      29.86R
WAUTOMA        PTCLDY    68  64  87 CALM      29.88R
WISC RAPIDS    CLOUDY    67  59  75 SW3       29.87R
CAMP DOUGLAS   NOT AVBL
$$

WIZ011>013-019>022-031-037>040-048>050-270300-
NORTHEAST WISCONSIN

CITY           SKY/WX    TMP DP  RH WIND       PRES   REMARKS
ANTIGO         PTCLDY    67  59  74 CALM      29.88R
SHAWANO        CLOUDY    68  61  77 CALM      29.86R
OCONTO         CLOUDY   N/A N/A N/A CALM      29.86R
STURGEON BAY   NOT AVBL
GREEN BAY      CLEAR     70  61  73 CALM      29.86R
MANITOWOC      NOT AVBL
APPLETON       MOCLDY    72  55  56 W3        29.86R
CLINTONVILLE   MOCLDY    68  59  73 CALM      29.86R
OSHKOSH        CLEAR     67  59  75 CALM      29.86R
$$

WIZ032>034-041-042-053>061-270300-
SOUTHWEST WISCONSIN

CITY           SKY/WX    TMP DP  RH WIND       PRES   REMARKS
LA CROSSE      CLOUDY    75  61  61 CALM      29.85R
SPARTA         CLOUDY    69  61  74 CALM      29.87R
VIROQUA        CLOUDY    72  60  66 S3        29.89R
BOSCOBEL       CLOUDY    71  64  78 NE3       29.85F
PRAIRIE DU CHI CLOUDY    72  63  72 E3        29.85F
PLATTEVILLE    CLOUDY    76  54  46 NW3       29.88S
$$

WIZ056-057-062-063-064-067-068-270300-
SOUTH CENTRAL WISCONSIN

CITY           SKY/WX    TMP DP  RH WIND       PRES   REMARKS
REEDSBURG      CLOUDY    71  61  68 CALM      29.88R
BARABOO/DELLS  CLOUDY    71  59  65 CALM      29.89R
LONE ROCK      NOT AVBL
MINERAL POINT  CLOUDY    73  52  46 N5        29.89S
MADISON        CLOUDY    69  57  65 CALM      29.87R
MIDDLETON      CLOUDY    72  59  64 CALM      29.89R
WATERTOWN      MOCLDY    72  60  66 CALM      29.86S
MONROE         CLOUDY    77  52  41 W6        29.88S
JANESVILLE     CLOUDY    75  55  50 CALM      29.87R
$$

WIZ051-052-058>065-066-070>072-270300-
SOUTHEAST WISCONSIN

CITY           SKY/WX    TMP DP  RH WIND       PRES   REMARKS
MILWAUKEE      CLOUDY    74  56  53 CALM      29.88R
WAUKESHA       CLEAR     72  55  56 SW3       29.90R
MILWAUKEE/TIMM CLEAR     75  54  46 CALM      29.88R
RACINE         CLOUDY    69  59  70 S3        29.90R
BURLINGTON     MOCLDY    71  59  67 CALM      29.88R
KENOSHA        CLEAR     74  63  68 S5        29.89R
FOND DU LAC    CLEAR     68  59  73 CALM      29.87R
SHEBOYGAN      CLEAR     64  59  83 CALM      29.87R
WEST BEND      CLOUDY    73  57  56 CALM      29.87S
JUNEAU         CLOUDY    73  60  63 CALM      29.88S
$$

LSZ147-162-270300-
LAKE SUPERIOR

STATION/POSITION TIME  TEMP    WIND        PRES    WAVE
                       AIR SEA DIR/SP/G            HT/PER
                 (UTC) (F)     (DEG/KT/KT) (MB)    (FT/S)
W MID LAKE BUOY  0050   40 38  170/  2/  4 1009.8F   1/ 5
DEVILS ISLAND    0100   46     130/  7/  8 1010.3R
PORT WING        0100   47     300/  5/  6 1010.2R
SAXON HARBOR     0100   50      60/  1/  2 1009.5R
$$

LMZ867-665-643>646-270300-
LAKE MICHIGAN

STATION/POSITION TIME  TEMP    WIND        PRES    WAVE
                       AIR SEA DIR/SP/G            HT/PER
                 (UTC) (F)     (DEG/KT/KT) (MB)    (FT/S)
CHAMBERS ISLAND  0100   63     110/  3/  5 1010.5R
N MID LAKE BUOY  0050   48 45  210/  6/  6 1010.3R   2/ 5
NORTHPORT PIER   0100   62     180/  3/  5 1010.5R
SISTER BAY       0104   63     150/  6/  7   N/A
ALGOMA LAKESHORE 0117             CALM       N/A
KEWAUNEE LAKESHO 0100                      1010.3R
SHEBOYGAN LAKESH 0100   62     180/ 10/ 10 1011.4R
PORT WASHINGTON  0120   60     140/  1/  3 1011.9R
S MID LAKE BUOY  0050   57 50  160/  8/  8 1011.4R   0
KENOSHA   LAKESH 0100   67     180/ 13/ 14 1010.8R
$$

TC  - TEMPERATURE IN CELSIUS
VSB - VISIBILITY IN STATUTE MILES
WCI - WIND CHILL INDEX
HX  - HEAT INDEX





USA.gov is the U.S. government's official web portal to all federal, state and local government web resources and services.